Home > Weather > Kortrijk > Past weeks

Flag for Belgium Past Weather in Kortrijk, Belgium — Yesterday and Last 2 Weeks

Now
66 °F

Sunny.


Feels Like: 66 °F
Forecast: 57 / 70 °F
Wind: 6 mph from Northwest

Location: Lille Airport

Current Time: Jul 30, 2016 at 8:58:14 PM

Latest Report: Jul 30, 2016 at 8:30 PM


Visibility: 10 mi

Pressure: 29.92 "Hg

Humidity: 78%

Dew Point: 59 °F

Location of KortrijkLocation

Past Weather in Kortrijk — Graph

°F

Kortrijk Temperature Yesterday

Maximum temperature yesterday: 73 °F (at 5:30 PM)
Minimum temperature yesterday: 61 °F (at 11:30 PM)
Average temperature yesterday: 66 °F

High & Low Weather Summary for the Past Weeks

 TemperatureHumidityPressure
High90 °F (Jul 19, 3:00 PM)100% (Jul 18, 6:30 AM)30.30 "Hg (Jul 18, 6:30 AM)
Low54 °F (Jul 27, 6:00 AM)36% (Jul 19, 3:30 PM)29.83 "Hg (Jul 20, 9:30 AM)
Average69 °F72%30.07 "Hg
* Reported Jul 15 7:00 PM — Jul 30 7:30 PM, Kortrijk, Weather by CustomWeather, © 2016

Note: Actual official high and low records may vary slightly from our data, if they occured in-between our weather recording intervals... More about our weather records

Advertising

Kortrijk Weather History for the Previous 24 Hours

Scroll right to see more
 ConditionsComfort  
Time TempWeatherWind HumidityBarometerVisibility
7:30 PM
Sat, Jul 30
68 °FMore clouds than sun.10 mph69%29.92 "HgN/A
7:00 PM68 °FMostly cloudy.7 mph69%29.92 "HgN/A
6:30 PM68 °FOvercast.8 mph69%29.92 "HgN/A
6:00 PM68 °FSunny.6 mph73%29.92 "Hg10 mi
5:30 PM68 °FSunny.8 mph69%29.92 "Hg10 mi
5:00 PM66 °FSunny.9 mph78%29.92 "Hg10 mi
4:30 PM66 °FOvercast.12 mph73%29.92 "HgN/A
4:00 PM68 °FOvercast.14 mph69%29.92 "HgN/A
3:30 PM70 °FOvercast.8 mph60%29.92 "HgN/A
3:00 PM70 °FOvercast.7 mph60%29.92 "HgN/A
2:30 PM70 °FOvercast.7 mph57%29.92 "HgN/A
2:00 PM70 °FPartly sunny.7 mph57%29.92 "HgN/A
1:30 PM72 °FPartly sunny.7 mph57%29.92 "HgN/A
1:00 PM72 °FPartly sunny.7 mph57%29.92 "HgN/A
12:30 PM70 °FMostly cloudy.8 mph64%29.92 "HgN/A
12:00 PM68 °FPartly sunny.9 mph69%29.92 "HgN/A
11:30 AM70 °FBroken clouds.8 mph69%29.92 "HgN/A
11:00 AM66 °FMostly cloudy.9 mph73%29.92 "HgN/A
10:30 AM66 °FPartly sunny.9 mph73%29.92 "HgN/A
10:00 AM64 °FPartly sunny.9 mph83%29.92 "HgN/A
9:30 AM64 °FMostly cloudy.10 mph78%29.92 "HgN/A
9:00 AM63 °FMore clouds than sun.7 mph83%29.92 "HgN/A
8:30 AM61 °FPartly sunny.6 mph88%29.92 "HgN/A
8:00 AM61 °FMore clouds than sun.6 mph88%29.92 "HgN/A
7:30 AM59 °FPassing clouds.3 mph94%29.92 "HgN/A
7:00 AM57 °FClear.6 mph94%29.92 "Hg10 mi
6:30 AM57 °FPartly cloudy.5 mph94%29.92 "HgN/A
6:00 AM57 °FPassing clouds.3 mph94%29.92 "HgN/A
5:30 AM59 °FClear.5 mph88%29.92 "Hg10 mi
5:00 AM59 °FPartly cloudy.6 mph88%29.92 "HgN/A
4:30 AM59 °FPassing clouds.8 mph94%29.92 "HgN/A
4:00 AM59 °FPassing clouds.6 mph94%29.92 "HgN/A
3:30 AM59 °FClear.6 mph88%29.92 "Hg10 mi
3:00 AM59 °FPassing clouds.6 mph88%29.92 "HgN/A
2:30 AM57 °FClear.6 mph94%29.92 "Hg10 mi
2:00 AM57 °FClear.7 mph94%29.92 "Hg10 mi
1:30 AM59 °FClear.6 mph88%29.92 "Hg10 mi
1:00 AM59 °FClear.8 mph88%29.92 "Hg10 mi
12:30 AM59 °FPassing clouds.5 mph88%29.92 "HgN/A
12:00 AM61 °FPassing clouds.6 mph83%29.92 "HgN/A
11:30 PM
Fri, Jul 29
61 °FClear.7 mph83%29.92 "Hg10 mi
11:00 PM63 °FClear.8 mph77%29.92 "Hg10 mi
10:30 PM63 °FSunny.6 mph73%29.92 "Hg10 mi
10:00 PM64 °FSunny.10 mph68%29.92 "Hg10 mi
9:30 PM64 °FSunny.10 mph73%29.92 "Hg10 mi
9:00 PM66 °FSunny.12 mph68%29.92 "Hg10 mi
8:30 PM68 °FSunny.13 mph64%29.92 "Hg10 mi
8:00 PM70 °FPassing clouds.15 mph60%29.92 "HgN/A
Weather by CustomWeather, © 2016

See weather overviewHow to use our weather pages